IVALO current weather conditions

sailwx.info

Wind from 040 at 1 knots

Air temperature -0.0° C
Visibility: greater than 0.8 NM
Dewpoint -0.0° C
Present weather: Snow.

Last reported at 2016-Feb-11 08:50 UTC.
Time now 2016-Feb-11 10:49 UTC

Location: N 68°37' E 027°25'.
View on Google Maps.

See reports from other nearby stations

  
Tides and Currents Weather Stations Pressure Air Temp Water Temp Dewpoint Dewpoint Depression Visibility Wind Speed Wind Dir Waves Ship Positions
date/time (UTC)wind fromknots sea level pressurealtimeterstation pressurevisibilityair tempwater tempwave heightnotes
2016-Feb-11 08:50 040 1 0.8-0.0 Snow.
2016-Feb-11 08:20 030 3 1.0-0.0 Snow rain.
2016-Feb-11 07:50 020 4 1.1-0.0 Light rain showers.
2016-Feb-11 07:20 030 4 1.6-0.0 Light rain showers.
2016-Feb-11 06:50 030 4 1.6-0.0 Light rain snow.
2016-Feb-11 06:20 020 4 1.6-0.0 Light rain snow.
2016-Feb-11 05:50 030 4 2.7-0.0 Light freezing rain.
2016-Feb-11 05:20 020 3 1.8-1.0 Light snow.
2016-Feb-11 04:50 040 3 1.8-1.0 Light ice pellets.
2016-Feb-11 04:20 030 3 1.9-1.0 Light freezing rain.
2016-Feb-11 03:50 030 3 1.8-1.0 Light freezing rain.
2016-Feb-11 03:20 040 2 1.8-1.0 Light freezing rain.
2016-Feb-11 02:50 030 3 2.7-1.0 Light snow.
2016-Feb-11 02:20 020 2 1.2-1.0 Light snow.
2016-Feb-11 01:50 030 1 1.7-1.0 Light snow.
2016-Feb-11 01:20 5.4-1.0
2016-Feb-11 00:50 5.4-1.0
2016-Feb-11 00:20 030 2 5.4-1.0
2016-Feb-10 23:50 010 2 5.4-1.0 Light snow.
2016-Feb-10 23:20 030 2 2.5-1.0 Light snow.
2016-Feb-10 22:50 2.0-1.0 Light snow.
2016-Feb-10 22:20 020 1 5.4-2.0 Light precipitation.
2016-Feb-10 21:50 020 1 5.4-2.0
2016-Feb-10 21:20 5.4-1.0 Light snow showers.
2016-Feb-10 20:50 130 2 2.7-1.0 Light snow.
2016-Feb-10 20:20 160 2 5.4-1.0
2016-Feb-10 19:50 260 1 5.4-1.0
2016-Feb-10 19:20 190 1 5.4-2.0
2016-Feb-10 18:50 200 2 5.4-1.0
2016-Feb-10 18:20 210 4 5.4-1.0
2016-Feb-10 17:50 180 4 5.4-0.0
2016-Feb-10 17:20 200 4 5.4-0.0
2016-Feb-10 16:50 190 3 5.4-0.0
2016-Feb-10 16:20 190 2 4.9-0.0 Light rain showers.
2016-Feb-10 15:50 4.3-1.0 Light snow showers.
2016-Feb-10 15:20 5.4-1.0
2016-Feb-10 14:50 5.4-1.0 Light snow.
2016-Feb-10 14:20 1.9-0.0 Light snow. Mist.
2016-Feb-10 13:50 4.3-0.0 Light snow grains.
2016-Feb-10 13:20 160 1 2.7-0.0 Light rain snow.
2016-Feb-10 12:50 2.7-0.0 Light rain snow.
2016-Feb-10 12:20 180 2 2.7-0.0 Light snow.
2016-Feb-10 11:50 180 2 2.3-0.0 Light rain snow.
2016-Feb-10 11:20 2.7-0.0 Light rain snow.
2016-Feb-10 10:50 2.7-0.0 Light snow.
2016-Feb-10 10:20 2.7-0.0 Light snow.
2016-Feb-10 09:50 190 2 2.7-0.0 Light snow.
2016-Feb-10 09:20 200 2 2.7-0.0 Light snow.
2016-Feb-10 08:50 210 2 2.2-0.0 Light snow.
2016-Feb-10 08:20 210 3 2.2-0.0 Light snow.
2016-Feb-10 07:50 5.4-1.0 Light snow.
2016-Feb-10 07:20 3.2-1.0 Light snow.
2016-Feb-10 06:50 3.2-2.0 Light snow.
2016-Feb-10 06:20 3.2-1.0 Light snow.
2016-Feb-10 05:50 5.4-1.0 Light snow.
2016-Feb-10 05:20 5.4-1.0 Light freezing rain.
2016-Feb-10 04:50 5.4-1.0 Light snow.
2016-Feb-10 04:20 5.4-1.0 Light snow.
2016-Feb-10 03:50 160 1 3.8-1.0 Light snow grains.
2016-Feb-10 03:20 190 1 5.4-0.0 Light snow grains.
2016-Feb-10 02:50 210 1 3.8-0.0 Light snow.
2016-Feb-10 02:20 2.1-0.0 Light ice pellets.
2016-Feb-10 01:50 1.1-0.0 Light snow. Mist.
2016-Feb-10 01:20 1.5-0.0 Light rain snow.
2016-Feb-10 00:50 1.1-0.0 Light rain snow.
2016-Feb-10 00:20 1.3-0.0 Light rain snow.
2016-Feb-09 23:50 0.8-0.0 Light rain snow.
2016-Feb-09 23:20 1.0-0.0 Light rain snow.
2016-Feb-09 22:50 1.2-0.0 Light rain snow.
2016-Feb-09 22:20 1.1-0.0 Light rain snow.
2016-Feb-09 21:50 1.3-0.0 Light freezing rain.
2016-Feb-09 21:20 1.8-0.0 Light rain snow.
2016-Feb-09 20:50 2.7-0.0 Light snow.
2016-Feb-09 20:20 2.7-0.0 Light rain.
2016-Feb-09 19:50 110 2 5.4 1.0
2016-Feb-09 19:20 150 6 5.4 1.0
2016-Feb-09 18:50 150 3 5.4 1.0
2016-Feb-09 18:20 160 3 5.4 1.0
2016-Feb-09 17:50 150 2 5.4 1.0
2016-Feb-09 17:20 150 2 5.4 1.0
2016-Feb-09 16:50 160 2 5.4 1.0